Date String (YYYY-MM-DD hh:mm:ss) UTC,Instrument flags,absolute air pressure of the measurement (hPa),sample flow rate (lpm),inlet stack bypass flow (lpm),air temperature of the measurement (°C),ambient temperature measured by the external sensor (°C),aerosol sample conditioner tube jacket temperature (°C),OPC LED temperature (°C),internal box temperature (°C),relative humidity of the measurement (%),span deviation,mass concentration of particles derived from Lorenz-Mie calculation of OPC scattering (μg/m³),mass concentration of particles derived from Lorenz-Mie calculation of OPC scattering (μg/m³),mass concentration of particles derived from Lorenz-Mie calculation of OPC scattering (μg/m³)
DateTimeUTC,F1_M11,P_M11,Q1_M11,Q2_M11,T1_M11,T2_M11,T3_M11,T4_M11,T5_M11,U1_M11,ZSPAN_M11,X0_M11,X2_M11,X1_M11
2024-01-09 13:00:00,SystemResetWarning,0820.2,5.00,000.00,018.8,018.2,000.0,027.3,020.0,6.4,0000.0,0002.76,0001.97,0001.66
2024-01-09 13:01:00,SystemResetWarning,0820.2,5.01,000.00,018.8,018.1,000.0,027.3,020.0,6.4,0000.0,0002.85,0002.02,0001.68
2024-01-09 13:02:00,SystemResetWarning,0820.2,5.00,000.00,018.8,018.0,000.0,027.3,020.0,6.4,0000.0,0002.85,0002.03,0001.69
2024-01-09 13:03:00,SystemResetWarning,0820.2,5.00,000.00,018.8,017.9,000.0,027.3,020.0,6.4,0000.0,0002.91,0002.06,0001.71
2024-01-09 13:04:00,SystemResetWarning,0820.1,4.99,000.00,018.8,017.9,000.0,027.3,020.0,6.4,0000.0,0002.90,0002.07,0001.72
2024-01-09 13:05:00,SystemResetWarning,0820.1,5.00,000.00,018.8,017.9,000.0,027.3,020.0,6.4,0000.0,0002.92,0002.08,0001.72
2024-01-09 13:06:00,SystemResetWarning,0820.1,4.99,000.00,018.8,017.9,000.0,027.3,020.1,6.4,0000.0,0003.01,0002.12,0001.74
2024-01-09 13:07:00,SystemResetWarning,0820.2,5.01,000.00,018.8,018.3,000.0,027.2,020.5,6.4,0000.0,0003.04,0002.11,0001.76
2024-01-09 13:08:00,SystemResetWarning,0820.3,5.01,000.00,019.0,019.0,000.0,027.3,020.8,6.4,0000.0,0002.98,0002.11,0001.79
2024-01-09 13:09:00,SystemResetWarning,0820.2,4.99,000.00,019.1,019.1,000.0,027.3,020.6,6.4,0000.0,0003.04,0002.14,0001.83
2024-01-09 13:10:00,SystemResetWarning,0820.2,4.99,000.00,019.1,019.0,000.0,027.3,020.3,6.4,0000.0,0003.01,0002.15,0001.86
2024-01-09 13:11:00,SystemResetWarning,0820.2,4.99,000.00,019.0,018.8,000.0,027.3,020.2,6.4,0000.0,0003.12,0002.20,0001.88
2024-01-09 13:12:00,SystemResetWarning,0820.2,5.00,000.00,019.0,018.7,000.0,027.2,020.1,6.4,0000.0,0003.06,0002.19,0001.88
2024-01-09 13:13:00,SystemResetWarning,0820.2,5.00,000.00,019.0,018.5,000.0,027.2,020.0,6.4,0000.0,0003.16,0002.21,0001.89
2024-01-09 13:14:00,SystemResetWarning,0820.2,5.00,000.00,018.9,018.4,000.0,027.2,020.0,6.5,0000.0,0003.34,0002.24,0001.91
2024-01-09 13:15:00,SystemResetWarning,0820.3,5.00,000.00,018.9,018.3,000.0,027.2,020.0,6.5,0000.0,0003.39,0002.26,0001.92
2024-01-09 13:16:00,SystemResetWarning,0820.3,5.00,000.00,018.9,018.3,000.0,027.2,020.0,6.5,0000.0,0003.54,0002.31,0001.95
2024-01-09 13:17:00,SystemResetWarning,0820.3,5.00,000.00,018.8,018.2,000.0,027.2,020.0,6.5,0000.0,0003.51,0002.29,0001.95
2024-01-09 13:18:00,SystemResetWarning,0820.3,5.00,000.00,018.8,018.1,000.0,027.2,020.0,6.4,0000.0,0003.43,0002.30,0001.96
2024-01-09 13:19:00,SystemResetWarning,0820.4,5.00,000.00,018.8,018.1,000.0,027.2,020.0,6.4,0000.0,0003.51,0002.31,0001.97
2024-01-09 13:20:00,SystemResetWarning,0820.8,5.00,000.00,018.8,018.0,000.0,027.2,020.0,6.4,0000.0,0003.56,0002.32,0001.97
2024-01-09 13:21:00,SystemResetWarning,0820.7,5.00,000.00,018.8,017.9,000.0,027.2,020.0,6.4,0000.0,0003.51,0002.31,0001.98
2024-01-09 13:22:00,SystemResetWarning,0820.8,5.01,000.00,018.8,017.9,000.0,027.2,020.0,6.4,0000.0,0003.46,0002.31,0002.00
2024-01-09 13:23:00,SystemResetWarning,0820.8,5.00,000.00,018.7,017.8,000.0,027.2,020.0,6.3,0000.0,0003.88,0002.36,0002.03
2024-01-09 13:24:00,SystemResetWarning,0820.7,5.00,000.00,018.7,017.8,000.0,027.2,020.0,6.3,0000.0,0004.33,0002.45,0002.07
2024-01-09 13:25:00,SystemResetWarning,0820.5,5.00,000.00,018.7,017.8,000.0,027.2,020.0,6.3,0000.0,0004.21,0002.47,0002.11
2024-01-09 13:26:00,SystemResetWarning,0820.5,5.00,000.00,018.8,018.1,000.0,027.2,020.3,6.3,0000.0,0004.29,0002.54,0002.15
2024-01-09 13:27:00,SystemResetWarning,0820.6,5.00,000.00,018.9,018.8,000.0,027.2,020.7,6.2,0000.0,0004.27,0002.56,0002.19
2024-01-09 13:28:00,SystemResetWarning,0820.6,4.98,000.00,019.0,019.1,000.0,027.2,020.6,6.2,0000.0,0004.31,0002.62,0002.23
2024-01-09 13:29:00,SystemResetWarning,0820.5,4.99,000.00,019.0,018.9,000.0,027.2,020.3,6.1,0000.0,0004.83,0002.76,0002.27
2024-01-09 13:30:00,SystemResetWarning,0820.7,5.00,000.00,019.0,018.8,000.0,027.2,020.1,6.1,0000.0,0005.42,0002.79,0002.30
2024-01-09 13:31:00,SystemResetWarning,0821.1,5.00,000.00,019.0,018.6,000.0,027.2,020.1,6.1,0000.0,0005.50,0002.86,0002.33
2024-01-09 13:32:00,SystemResetWarning,0820.9,5.00,000.00,018.9,018.5,000.0,027.2,020.0,6.1,0000.0,0006.36,0002.90,0002.33
2024-01-09 13:33:00,SystemResetWarning,0820.6,5.01,000.00,018.9,018.4,000.0,027.2,020.0,6.1,0000.0,0006.72,0002.91,0002.32
2024-01-09 13:34:00,SystemResetWarning,0821.0,5.01,000.00,018.9,018.2,000.0,027.2,020.0,6.2,0000.0,0006.65,0002.88,0002.30
2024-01-09 13:35:00,SystemResetWarning,0820.9,5.00,000.00,018.8,018.1,000.0,027.3,020.0,6.2,0000.0,0006.02,0002.84,0002.30
2024-01-09 13:36:00,SystemResetWarning,0820.3,5.00,000.00,018.8,018.0,000.0,027.3,020.0,6.2,0000.0,0006.82,0002.83,0002.28
2024-01-09 13:37:00,SystemResetWarning,0820.3,5.00,000.00,018.8,017.9,000.0,027.3,020.0,6.3,0000.0,0006.86,0002.78,0002.25
2024-01-09 13:38:00,SystemResetWarning,0820.3,5.00,000.00,018.8,017.8,000.0,027.3,020.0,6.3,0000.0,0006.81,0002.74,0002.21
2024-01-09 13:39:00,SystemResetWarning,0820.3,5.00,000.00,018.8,017.8,000.0,027.3,020.0,6.3,0000.0,0006.72,0002.68,0002.17
2024-01-09 13:40:00,SystemResetWarning,0820.3,5.00,000.00,018.8,017.7,000.0,027.3,020.0,6.3,0000.0,0006.45,0002.57,0002.14
2024-01-09 13:41:00,SystemResetWarning,0820.3,4.99,000.00,018.8,017.7,000.0,027.3,020.0,6.3,0000.0,0005.77,0002.52,0002.11
2024-01-09 13:42:00,SystemResetWarning,0820.3,5.02,000.00,018.8,018.0,000.0,027.2,020.3,6.3,0000.0,0005.54,0002.45,0002.07
2024-01-09 13:43:00,SystemResetWarning,0820.3,5.00,000.00,018.9,018.7,000.0,027.3,020.7,6.3,0000.0,0005.02,0002.36,0002.03
2024-01-09 13:44:00,SystemResetWarning,0820.3,4.98,000.00,019.0,019.0,000.0,027.3,020.6,6.3,0000.0,0005.19,0002.35,0002.00
2024-01-09 13:45:00,SystemResetWarning,0820.3,5.00,000.00,019.0,018.9,000.0,027.3,020.3,6.3,0000.0,0005.95,0002.34,0001.98
2024-01-09 13:46:00,SystemResetWarning,0820.2,5.01,000.00,019.0,018.8,000.0,027.2,020.2,6.3,0000.0,0005.94,0002.34,0001.97
2024-01-09 13:47:00,SystemResetWarning,0820.2,5.01,000.00,019.0,018.6,000.0,027.2,020.1,6.3,0000.0,0006.32,0002.31,0001.95
2024-01-09 13:48:00,SystemResetWarning,0820.1,5.00,000.00,018.9,018.5,000.0,027.2,020.0,6.4,0000.0,0006.44,0002.28,0001.93
2024-01-09 13:49:00,SystemResetWarning,0820.0,4.99,000.00,018.9,018.3,000.0,027.2,020.0,6.4,0000.0,0006.46,0002.25,0001.91
2024-01-09 13:50:00,SystemResetWarning,0820.1,5.00,000.00,018.9,018.2,000.0,027.2,020.0,6.4,0000.0,0006.79,0002.25,0001.90
2024-01-09 13:51:00,SystemResetWarning,0820.2,5.01,000.00,018.8,018.1,000.0,027.2,020.0,6.4,0000.0,0006.86,0002.24,0001.88
2024-01-09 13:52:00,SystemResetWarning,0820.1,5.01,000.00,018.8,018.0,000.0,027.2,020.0,6.4,0000.0,0006.89,0002.26,0001.89
2024-01-09 13:53:00,SystemResetWarning,0820.2,5.00,000.00,018.8,017.9,000.0,027.2,020.0,6.4,0000.0,0006.96,0002.29,0001.90
2024-01-09 13:54:00,SystemResetWarning,0820.1,4.99,000.00,018.8,017.8,000.0,027.2,020.0,6.4,0000.0,0007.76,0002.32,0001.91
2024-01-09 13:55:00,SystemResetWarning,0820.1,4.99,000.00,018.8,017.8,000.0,027.2,020.0,6.5,0000.0,0007.32,0002.30,0001.93
2024-01-09 13:56:00,SystemResetWarning,0820.0,5.00,000.00,018.8,017.8,000.0,027.2,020.0,6.5,0000.0,0006.50,0002.31,0001.94
2024-01-09 13:57:00,SystemResetWarning,0820.0,5.01,000.00,018.7,017.8,000.0,027.2,020.0,6.5,0000.0,0006.52,0002.33,0001.95
2024-01-09 13:58:00,SystemResetWarning,0820.1,5.01,000.00,018.7,017.8,000.0,027.2,020.0,6.5,0000.0,0005.49,0002.32,0001.94
2024-01-09 13:59:00,SystemResetWarning,0820.1,5.01,000.00,018.8,018.0,000.0,027.2,020.3,6.5,0000.0,0005.03,0002.35,0001.95
